| time (UTC) | temp F | wind direction | speed MPH | gust MPH | rain 1hr in | rain 24hr in | rain mn in | humidity % | barometer mb |
| 20260510230015 | 82 | 313 | 1.0 | 6.0 | 0.00 | 0.00 | 0.00 | 78 | 1016.3 |
| 20260510224507 | 83 | 300 | 1.0 | 4.0 | 0.00 | 0.00 | 0.00 | 78 | 1016.4 |
| 20260510223009 | 83 | 318 | 1.0 | 4.0 | 0.00 | 0.00 | 0.00 | 77 | 1016.3 |
| 20260510221508 | 84 | 334 | 1.0 | 4.0 | 0.00 | 0.00 | 0.00 | 76 | 1016.3 |
| 20260510220008 | 84 | 306 | 2.0 | 4.0 | 0.00 | 0.00 | 0.00 | 74 | 1016.4 |
| 20260510214523 | 85 | 342 | 1.0 | 6.0 | 0.00 | 0.00 | 0.00 | 73 | 1016.3 |
| 20260510213008 | 85 | 360 | 3.0 | 8.0 | 0.00 | 0.00 | 0.00 | 72 | 1016.4 |
| 20260510211514 | 86 | 298 | 2.0 | 5.0 | 0.00 | 0.00 | 0.00 | 70 | 1016.5 |
| 20260510210018 | 87 | 327 | 2.0 | 8.0 | 0.00 | 0.00 | 0.00 | 68 | 1016.4 |
| 20260510204513 | 87 | 352 | 1.0 | 7.0 | 0.00 | 0.00 | 0.00 | 69 | 1016.5 |
| 20260510201510 | 88 | 277 | 2.0 | 7.0 | 0.00 | 0.00 | 0.00 | 65 | 1016.6 |
| 20260510194521 | 88 | 157 | 1.0 | 7.0 | 0.00 | 0.00 | 0.00 | 62 | 1016.5 |
| 20260510193021 | 89 | 232 | 1.0 | 8.0 | 0.00 | 0.00 | 0.00 | 61 | 1016.5 |
| 20260510191511 | 89 | 348 | 2.0 | 5.0 | 0.00 | 0.00 | 0.00 | 59 | 1016.7 |
| 20260510184515 | 90 | 243 | 1.0 | 5.0 | 0.00 | 0.00 | 0.00 | 58 | 1016.7 |
| 20260510181514 | 91 | 336 | 1.0 | 6.0 | 0.00 | 0.00 | 0.00 | 59 | 1016.9 |
| 20260510180009 | 89 | 340 | 1.0 | 8.0 | 0.00 | 0.00 | 0.00 | 61 | 1017.1 |
| 20260510173018 | 90 | 267 | 1.0 | 6.0 | 0.00 | 0.00 | 0.00 | 58 | 1017.4 |
| 20260510171523 | 91 | 342 | 3.0 | 7.0 | 0.00 | 0.00 | 0.00 | 57 | 1017.3 |
| 20260510170022 | 91 | 168 | 1.0 | 7.0 | 0.00 | 0.00 | 0.00 | 58 | 1017.5 |
| 20260510164511 | 91 | 172 | 1.0 | 9.0 | 0.00 | 0.00 | 0.00 | 58 | 1017.7 |
| 20260510163016 | 90 | 269 | 1.0 | 7.0 | 0.00 | 0.00 | 0.00 | 63 | 1017.7 |
| 20260510161506 | 90 | 141 | 2.0 | 7.0 | 0.00 | 0.00 | 0.00 | 64 | 1017.6 |
| 20260510160009 | 89 | 311 | 1.0 | 3.0 | 0.00 | 0.00 | 0.00 | 66 | 1017.8 |
| 20260510154507 | 87 | 26 | 1.0 | 4.0 | 0.00 | 0.00 | 0.00 | 70 | 1017.8 |
| 20260510153020 | 86 | 181 | 3.0 | 6.0 | 0.00 | 0.00 | 0.00 | 74 | 1017.7 |
| 20260510150005 | 87 | 138 | 1.0 | 5.0 | 0.00 | 0.00 | 0.00 | 73 | 1017.7 |
| 20260510144509 | 86 | 234 | 3.0 | 7.0 | 0.00 | 0.00 | 0.00 | 75 | 1017.6 |
| 20260510143009 | 86 | 187 | 1.0 | 6.0 | 0.00 | 0.00 | 0.00 | 76 | 1017.6 |
| 20260510141510 | 86 | 156 | 2.0 | 6.0 | 0.00 | 0.00 | 0.00 | 74 | 1017.6 |
| 20260510140009 | 85 | 169 | 1.0 | 8.0 | 0.00 | 0.00 | 0.00 | 77 | 1017.5 |
| 20260510134509 | 84 | 157 | 2.0 | 7.0 | 0.00 | 0.00 | 0.00 | 79 | 1017.2 |
| 20260510133009 | 83 | 159 | 1.0 | 6.0 | 0.00 | 0.00 | 0.00 | 79 | 1017.0 |
| 20260510130033 | 81 | 137 | 2.0 | 6.0 | 0.00 | 0.00 | 0.00 | 81 | 1017.0 |
| 20260510124511 | 80 | 136 | 2.0 | 5.0 | 0.00 | 0.00 | 0.00 | 83 | 1017.0 |
| 20260510123009 | 79 | 163 | 1.0 | 2.0 | 0.00 | 0.00 | 0.00 | 85 | 1016.9 |
| 20260510121506 | 78 | 152 | 0.0 | 4.0 | 0.00 | 0.00 | 0.00 | 87 | 1016.8 |
| 20260510114515 | 77 | 162 | 0.0 | 2.0 | 0.00 | 0.00 | 0.00 | 88 | 1016.5 |
| 20260510113010 | 77 | 178 | 1.0 | 2.0 | 0.00 | 0.00 | 0.00 | 90 | 1016.1 |
| 20260510111516 | 77 | 167 | 0.0 | 2.0 | 0.00 | 0.00 | 0.00 | 90 | 1015.9 |
| 20260510110032 | 76 | 175 | 0.0 | 2.0 | 0.00 | 0.00 | 0.00 | 92 | 1015.6 |
| 20260510101525 | 76 | 169 | 0.0 | 2.0 | 0.00 | 0.00 | 0.00 | 92 | 1014.9 |
| 20260510100023 | 76 | 169 | 0.0 | 2.0 | 0.00 | 0.00 | 0.00 | 92 | 1014.5 |
| 20260510093017 | 76 | 153 | 0.0 | 2.0 | 0.00 | 0.00 | 0.00 | 92 | 1014.4 |
| 20260510091516 | 76 | 153 | 0.0 | 0.0 | 0.00 | 0.00 | 0.00 | 92 | 1014.4 |
| 20260510090020 | 76 | 153 | 0.0 | 2.0 | 0.00 | 0.00 | 0.00 | 1014.0 | |
| 20260510083024 | 77 | 161 | 1.0 | 3.0 | 0.00 | 0.00 | 0.00 | 1013.8 | |
| 20260510081516 | 77 | 157 | 0.0 | 3.0 | 0.00 | 0.00 | 0.00 | 93 | 1014.1 |
| 20260510080018 | 77 | 183 | 0.0 | 3.0 | 0.00 | 0.00 | 0.00 | 93 | 1014.3 |
| 20260510074517 | 77 | 148 | 0.0 | 2.0 | 0.00 | 0.00 | 0.00 | 93 | 1014.1 |
| 20260510073018 | 77 | 148 | 0.0 | 2.0 | 0.00 | 0.00 | 0.00 | 92 | 1014.1 |
| 20260510071520 | 77 | 148 | 0.0 | 2.0 | 0.00 | 0.00 | 0.00 | 92 | 1014.2 |
| 20260510070018 | 77 | 148 | 0.0 | 0.0 | 0.00 | 0.00 | 0.00 | 92 | 1014.5 |
| 20260510064530 | 78 | 148 | 0.0 | 2.0 | 0.00 | 0.00 | 0.00 | 91 | 1014.5 |
| 20260510063021 | 78 | 117 | 0.0 | 2.0 | 0.00 | 0.00 | 0.00 | 91 | 1014.8 |
| 20260510061523 | 78 | 57 | 0.0 | 2.0 | 0.00 | 0.00 | 0.00 | 90 | 1014.9 |
| 20260510060020 | 78 | 169 | 0.0 | 3.0 | 0.00 | 0.00 | 0.00 | 91 | 1015.3 |
| 20260510054523 | 78 | 159 | 0.0 | 2.0 | 0.00 | 0.00 | 0.00 | 90 | 1015.5 |
| 20260510053023 | 78 | 165 | 0.0 | 2.0 | 0.00 | 0.00 | 0.00 | 90 | 1015.7 |
| 20260510051521 | 78 | 150 | 0.0 | 2.0 | 0.00 | 0.00 | 0.00 | 90 | 1015.6 |
| 20260510050022 | 78 | 175 | 0.0 | 1.0 | 0.00 | 0.00 | 0.00 | 89 | 1015.7 |
| 20260510044524 | 78 | 175 | 0.0 | 2.0 | 0.00 | 0.00 | 0.00 | 88 | 1015.7 |
| 20260510043022 | 78 | 175 | 0.0 | 2.0 | 0.00 | 0.00 | 0.00 | 89 | 1016.0 |
| 20260510041521 | 78 | 175 | 0.0 | 0.0 | 0.00 | 0.00 | 0.00 | 89 | 1015.8 |
| 20260510040022 | 77 | 175 | 0.0 | 1.0 | 0.00 | 0.00 | 0.00 | 89 | 1015.8 |
| 20260510034527 | 78 | 175 | 0.0 | 2.0 | 0.00 | 0.00 | 0.00 | 88 | 1015.7 |
| 20260510033025 | 78 | 175 | 0.0 | 2.0 | 0.00 | 0.00 | 0.00 | 88 | 1015.6 |
| 20260510031523 | 78 | 175 | 0.0 | 1.0 | 0.00 | 0.00 | 0.00 | 87 | 1015.6 |
| 20260510030026 | 78 | 175 | 0.0 | 2.0 | 0.00 | 0.00 | 0.00 | 87 | 1015.5 |
| 20260510024524 | 79 | 311 | 0.0 | 2.0 | 0.00 | 0.00 | 0.00 | 87 | 1015.5 |
| 20260510023024 | 79 | 336 | 0.0 | 2.0 | 0.00 | 0.00 | 0.00 | 87 | 1015.4 |
| 20260510021529 | 79 | 336 | 0.0 | 2.0 | 0.00 | 0.00 | 0.00 | 85 | 1015.2 |
| 20260510020024 | 79 | 300 | 0.0 | 2.0 | 0.00 | 0.00 | 0.00 | 85 | 1015.3 |
| 20260510013025 | 80 | 332 | 0.0 | 2.0 | 0.00 | 0.00 | 0.00 | 83 | 1014.9 |
| 20260510011523 | 80 | 183 | 0.0 | 2.0 | 0.00 | 0.00 | 0.00 | 81 | 1014.8 |
| 20260510010023 | 80 | 338 | 0.0 | 2.0 | 0.00 | 0.00 | 0.00 | 79 | 1014.5 |
| 20260510000017 | 81 | 279 | 1.0 | 5.0 | 0.00 | 0.00 | 0.00 | 76 | 1013.7 |
| 20260509234536 | 81 | 166 | 0.0 | 2.0 | 0.00 | 0.00 | 0.00 | 75 | 1013.5 |
| 20260509231515 | 83 | 289 | 0.0 | 3.0 | 0.00 | 0.00 | 0.00 | 73 | 1013.6 |